| time (UTC) | temp F | wind direction | speed MPH | gust MPH | rain 1hr in | rain 24hr in | rain mn in | humidity % | barometer mb |
| 20260901072403 | 69 | 187 | 0.0 | 1.0 | 0.00 | 0.00 | 0.00 | 99 | 1014.2 |
| 20260901071002 | 69 | 181 | 0.0 | 0.0 | 0.00 | 0.00 | 0.00 | 100 | 1014.2 |
| 20260901065503 | 69 | 243 | 0.0 | 0.0 | 0.00 | 0.00 | 0.00 | 100 | 1014.6 |
| 20260901064002 | 69 | 290 | 0.0 | 0.0 | 0.00 | 0.00 | 0.00 | 99 | 1014.6 |
| 20260901062902 | 69 | 259 | 0.0 | 0.0 | 0.00 | 0.00 | 0.00 | 99 | 1014.9 |
| 20260901061503 | 69 | 285 | 0.0 | 0.0 | 0.00 | 0.00 | 0.00 | 99 | 1014.9 |
| 20260901060003 | 69 | 225 | 0.0 | 0.0 | 0.00 | 0.00 | 0.00 | 100 | 1015.2 |
| 20260901055002 | 69 | 226 | 0.0 | 0.0 | 0.00 | 0.00 | 0.00 | 99 | 1015.2 |
| 20260901053501 | 69 | 220 | 0.0 | 0.0 | 0.00 | 0.00 | 0.00 | 99 | 1015.2 |
| 20260901052002 | 69 | 272 | 0.0 | 0.0 | 0.00 | 0.00 | 0.00 | 99 | 1015.6 |
| 20260901050502 | 69 | 294 | 0.0 | 0.0 | 0.00 | 0.00 | 0.00 | 99 | 1015.6 |
| 20260901045001 | 69 | 152 | 0.0 | 2.0 | 0.00 | 0.00 | 0.00 | 99 | 1015.6 |
| 20260901043402 | 69 | 229 | 0.0 | 0.0 | 0.00 | 0.00 | 0.00 | 99 | 1016.3 |
| 20260901041901 | 69 | 286 | 0.0 | 0.0 | 0.00 | 0.00 | 0.00 | 99 | 1016.3 |
| 20260901040501 | 69 | 290 | 0.0 | 0.0 | 0.41 | 0.00 | 0.00 | 99 | 1016.3 |
| 20260901035001 | 69 | 324 | 0.0 | 0.0 | 0.41 | 0.00 | 0.98 | 99 | 1016.9 |
| 20260901033903 | 69 | 178 | 0.0 | 0.0 | 0.41 | 0.00 | 0.98 | 99 | 1016.9 |
| 20260901032502 | 69 | 268 | 0.0 | 0.0 | 0.41 | 0.00 | 0.98 | 98 | 1016.9 |
| 20260901031202 | 69 | 231 | 0.0 | 0.0 | 0.00 | 0.00 | 0.56 | 98 | 1016.9 |
| 20260901023501 | 63 | 250 | 0.0 | 0.0 | 0.00 | 0.00 | 0.56 | 100 | 1016.9 |
| 20260901021902 | 63 | 352 | 0.0 | 0.0 | 0.00 | 0.00 | 0.56 | 100 | 1016.9 |
| 20260901020501 | 63 | 4 | 0.0 | 0.0 | 0.00 | 0.00 | 0.56 | 100 | 1016.9 |
| 20260901015003 | 63 | 215 | 0.0 | 0.0 | 0.00 | 0.00 | 0.56 | 100 | 1016.9 |
| 20260901013502 | 63 | 19 | 0.0 | 0.0 | 0.00 | 0.00 | 0.56 | 100 | 1016.9 |
| 20260901012003 | 63 | 357 | 0.0 | 0.0 | 0.01 | 0.00 | 0.56 | 100 | 1016.9 |
| 20260901010502 | 63 | 324 | 0.0 | 0.0 | 0.01 | 0.00 | 0.56 | 100 | 1016.9 |
| 20260901005402 | 63 | 279 | 0.0 | 0.0 | 0.01 | 0.00 | 0.56 | 100 | 1016.9 |
| 20260901004002 | 63 | 7 | 0.0 | 0.0 | 0.01 | 0.00 | 0.56 | 100 | 1016.9 |
| 20260901002502 | 63 | 310 | 0.0 | 0.0 | 0.00 | 0.00 | 0.56 | 100 | 1016.9 |
| 20260901001002 | 63 | 226 | 0.0 | 0.0 | 0.00 | 0.00 | 0.56 | 100 | 1016.9 |
| 20260831235502 | 63 | 226 | 0.0 | 3.0 | 0.00 | 0.00 | 0.56 | 100 | 1016.9 |
| 20260831234502 | 63 | 222 | 0.0 | 0.0 | 0.00 | 0.00 | 0.56 | 100 | 1016.9 |
| 20260831233003 | 63 | 270 | 0.0 | 0.0 | 0.00 | 0.00 | 0.56 | 100 | 1016.9 |
| 20260831231502 | 63 | 282 | 0.0 | 1.0 | 0.00 | 0.00 | 0.56 | 100 | 1016.9 |
| 20260831230003 | 63 | 174 | 0.0 | 0.0 | 0.00 | 0.00 | 0.56 | 100 | 1016.9 |
| 20260831224901 | 63 | 258 | 2.0 | 2.0 | 0.00 | 0.00 | 0.56 | 100 | 1016.9 |
| 20260831223401 | 63 | 185 | 0.0 | 0.0 | 0.00 | 0.00 | 0.56 | 100 | 1016.9 |
| 20260831221902 | 63 | 197 | 3.0 | 5.0 | 0.00 | 0.00 | 0.56 | 100 | 1016.9 |
| 20260831220402 | 63 | 271 | 2.0 | 5.0 | 0.00 | 0.00 | 0.56 | 100 | 1017.3 |
| 20260831215402 | 63 | 96 | 2.0 | 4.0 | 0.00 | 0.00 | 0.56 | 100 | 1017.3 |
| 20260831213904 | 63 | 273 | 0.0 | 6.0 | 0.00 | 0.00 | 0.56 | 100 | 1016.9 |
| 20260831212402 | 63 | 181 | 0.0 | 3.0 | 0.00 | 0.00 | 0.56 | 100 | 1017.3 |
| 20260831211001 | 63 | 281 | 0.0 | 4.0 | 0.00 | 0.00 | 0.56 | 100 | 1016.9 |
| 20260831205402 | 63 | 235 | 0.0 | 0.0 | 0.00 | 0.00 | 0.56 | 100 | 1016.9 |
| 20260831204402 | 63 | 310 | 0.0 | 3.0 | 0.00 | 0.00 | 0.56 | 100 | 1016.9 |
| 20260831202902 | 63 | 332 | 0.0 | 1.0 | 0.01 | 0.00 | 0.56 | 100 | 1016.9 |
| 20260831201402 | 63 | 263 | 0.0 | 4.0 | 0.01 | 0.00 | 0.56 | 100 | 1016.9 |
| 20260831200002 | 63 | 131 | 4.0 | 4.0 | 0.01 | 0.00 | 0.56 | 100 | 1017.3 |
| 20260831194901 | 63 | 179 | 1.0 | 6.0 | 0.02 | 0.00 | 0.56 | 100 | 1017.3 |
| 20260831193503 | 63 | 224 | 4.0 | 4.0 | 0.01 | 0.00 | 0.55 | 100 | 1017.3 |
| 20260831192402 | 63 | 138 | 2.0 | 2.0 | 0.01 | 0.00 | 0.55 | 100 | 1017.6 |
| 20260831191002 | 63 | 297 | 2.0 | 6.0 | 0.03 | 0.00 | 0.55 | 100 | 1017.6 |
| 20260831185502 | 63 | 227 | 1.0 | 3.0 | 0.02 | 0.00 | 0.54 | 100 | 1017.6 |
| 20260831184502 | 63 | 227 | 2.0 | 3.0 | 0.02 | 0.00 | 0.54 | 100 | 1017.6 |
| 20260831183402 | 63 | 288 | 0.0 | 3.0 | 0.02 | 0.00 | 0.54 | 100 | 1017.9 |
| 20260831182002 | 63 | 172 | 0.0 | 1.0 | 0.00 | 0.00 | 0.52 | 100 | 1017.9 |
| 20260831180502 | 63 | 87 | 2.0 | 3.0 | 0.00 | 0.00 | 0.52 | 100 | 1017.9 |
| 20260831175002 | 63 | 276 | 0.0 | 2.0 | 0.00 | 0.00 | 0.52 | 100 | 1018.3 |
| 20260831173502 | 63 | 247 | 4.0 | 4.0 | 0.00 | 0.00 | 0.52 | 100 | 1017.9 |
| 20260831172501 | 63 | 167 | 0.0 | 4.0 | 0.00 | 0.00 | 0.52 | 100 | 1018.3 |
| 20260831171001 | 63 | 32 | 0.0 | 5.0 | 0.00 | 0.00 | 0.52 | 100 | 1018.3 |
| 20260831165502 | 63 | 325 | 1.0 | 3.0 | 0.00 | 0.00 | 0.52 | 100 | 1018.3 |
| 20260831163902 | 63 | 276 | 0.0 | 4.0 | 0.00 | 0.00 | 0.52 | 100 | 1018.3 |
| 20260831162901 | 63 | 244 | 3.0 | 4.0 | 0.00 | 0.00 | 0.52 | 100 | 1018.3 |
| 20260831161502 | 63 | 332 | 0.0 | 7.0 | 0.00 | 0.00 | 0.52 | 100 | 1018.3 |
| 20260831160003 | 63 | 203 | 0.0 | 0.0 | 0.00 | 0.00 | 0.52 | 100 | 1019.0 |
| 20260831154902 | 63 | 251 | 0.0 | 3.0 | 0.00 | 0.00 | 0.52 | 100 | 1019.0 |
| 20260831153501 | 63 | 297 | 0.0 | 0.0 | 0.00 | 0.00 | 0.52 | 100 | 1019.0 |
| 20260831152001 | 63 | 228 | 0.0 | 3.0 | 0.08 | 0.00 | 0.52 | 100 | 1019.0 |
| 20260831150502 | 63 | 187 | 3.0 | 4.0 | 0.19 | 0.00 | 0.52 | 100 | 1019.0 |
| 20260831145501 | 63 | 90 | 1.0 | 1.0 | 0.20 | 0.00 | 0.52 | 100 | 1018.6 |
| 20260831144402 | 63 | 68 | 0.0 | 1.0 | 0.21 | 0.00 | 0.52 | 100 | 1019.0 |
| 20260831143002 | 63 | 93 | 0.0 | 4.0 | 0.20 | 0.00 | 0.50 | 100 | 1018.6 |
| 20260831141502 | 63 | 101 | 0.0 | 0.0 | 0.14 | 0.00 | 0.40 | 100 | 1019.0 |
| 20260831135002 | 63 | 277 | 0.0 | 0.0 | 0.10 | 0.00 | 0.31 | 100 | 1019.0 |
| 20260831133502 | 63 | 202 | 0.0 | 0.0 | 0.10 | 0.00 | 0.30 | 100 | 1019.0 |
| 20260831132001 | 63 | 261 | 0.0 | 0.0 | 0.06 | 0.00 | 0.25 | 100 | 1019.0 |
| 20260831130502 | 63 | 314 | 0.0 | 0.0 | 0.03 | 0.00 | 0.22 | 100 | 1019.0 |
| 20260831125003 | 63 | 15 | 0.0 | 0.0 | 0.01 | 0.00 | 0.20 | 100 | 1018.6 |
| 20260831124002 | 63 | 195 | 0.0 | 0.0 | 0.01 | 0.00 | 0.20 | 100 | 1018.6 |
| 20260831122502 | 63 | 267 | 0.0 | 0.0 | 0.00 | 0.00 | 0.19 | 100 | 1018.6 |
| 20260831121001 | 63 | 66 | 0.0 | 2.0 | 0.01 | 0.00 | 0.19 | 100 | 1019.0 |
| 20260831115502 | 63 | 174 | 0.0 | 0.0 | 0.01 | 0.00 | 0.19 | 100 | 1018.6 |
| 20260831114003 | 63 | 164 | 0.0 | 0.0 | 0.02 | 0.00 | 0.19 | 100 | 1018.6 |
| 20260831112502 | 63 | 204 | 0.0 | 0.0 | 0.01 | 0.00 | 0.18 | 100 | 1018.6 |
| 20260831111501 | 63 | 73 | 0.0 | 0.0 | 0.01 | 0.00 | 0.18 | 100 | 1019.0 |
| 20260831110003 | 63 | 354 | 0.0 | 0.0 | 0.02 | 0.00 | 0.18 | 100 | 1019.0 |
| 20260831104902 | 63 | 337 | 0.0 | 0.0 | 0.02 | 0.00 | 0.18 | 100 | 1019.0 |
| 20260831103402 | 63 | 323 | 0.0 | 0.0 | 0.01 | 0.00 | 0.17 | 100 | 1019.0 |
| 20260831102001 | 63 | 316 | 0.0 | 0.0 | 0.01 | 0.00 | 0.17 | 100 | 1019.0 |
| 20260831100402 | 63 | 314 | 0.0 | 0.0 | 0.00 | 0.00 | 0.16 | 100 | 1019.0 |
| 20260831095401 | 63 | 311 | 0.0 | 0.0 | 0.00 | 0.00 | 0.16 | 100 | 1019.0 |
| 20260831093902 | 63 | 236 | 0.0 | 0.0 | 0.00 | 0.00 | 0.16 | 100 | 1019.0 |
| 20260831092402 | 63 | 351 | 0.0 | 0.0 | 0.00 | 0.00 | 0.16 | 100 | 1019.0 |
| 20260831074501 | 63 | 245 | 0.0 | 0.0 | 0.04 | 0.00 | 0.16 | 100 | 1019.6 |